Regional Weather Roundup
Issued by NWS

Home | Current Version | Previous Version | Graphics & Text | Print | Product List | Glossary Off
Versions: 1 2 3 4 5 6 7 8 9 10 11 12 13 14 15 16 17 18 19 20 21 22 23 24 25 26 27 28 29 30 31 32 33 34 35 36 37 38 39 40 41 42 43 44 45 46 47 48 49 50

268
ASUS43 KTOP 200159
RWRKS

WEATHER ROUNDUP FOR KANSAS
NATIONAL WEATHER SERVICE GOODLAND KS
900 PM CDT THU APR 19 2018

NOTE:  "FAIR" INDICATES FEW OR NO CLOUDS BELOW 12,000 FEET WITH NO
SIGNIFICANT WEATHER AND/OR OBSTRUCTIONS TO VISIBILITY.

KSZ001>006-013>018-027>032-041>047-200300-
NORTHWEST KANSAS

CITY           SKY/WX    TMP DP  RH WIND       PRES   REMARKS
GOODLAND       MOCLDY    51  26  37 SE18G28   30.16S
HAYS           CLEAR     46  26  45 E12       30.29S
HILL CITY      CLEAR     49  26  41 E12       30.27F
RUSSELL        CLOUDY    49  29  46 E10       30.30R
$$

KSZ061>065-074>080-084>089-200300-
SOUTHWEST KANSAS

CITY           SKY/WX    TMP DP  RH WIND       PRES   REMARKS
DODGE CITY     CLOUDY    50  25  37 E10       30.25R
GARDEN CITY    CLOUDY    53  24  32 SE14      30.22R
GREAT BEND     CLEAR     49  29  46 SE8       30.30R
LIBERAL        CLEAR     56  26  31 SE15      30.21S
$$

KSZ066>073-081>083-090>101-200300-
SOUTHEAST KANSAS

CITY           SKY/WX    TMP DP  RH WIND       PRES   REMARKS
CHANUTE        PTCLDY    50  31  48 E6        30.36R
COFFEYVILLE    PTCLDY    48  33  56 E5        30.34S
HUTCHINSON     CLEAR     45  27  49 E7        30.32R
MEDICINE LODGE   N/A     53  29  39 E5        30.30R
NEWTON         CLEAR     47  26  44 SE8       30.34R
PARSONS        CLOUDY    44  35  70 CALM      30.35S HAZE
WICHITA INTL   CLEAR     51  28  41 E8        30.32S
WICHITA JABRA  CLEAR     47  27  45 E6        30.33R
WINFIELD       CLOUDY    53  27  36 E7        30.34R
$$

KSZ007>012-019>026-033>040-048>060-102>105-200300-
NORTHEAST KANSAS

CITY           SKY/WX    TMP DP  RH WIND       PRES   REMARKS
CONCORDIA      CLOUDY    46  24  42 CALM      30.34R
EMPORIA        CLEAR     47  29  49 E6        30.34R
LAWRENCE       CLEAR     48  31  51 E6        30.36R
MANHATTAN      CLOUDY    50  26  39 CALM      30.34R
OLATHE IND     CLEAR     50  30  46 E7        30.37R
OLATHE EXE     CLEAR     49  30  48 E6        30.37R
SALINA         CLOUDY    54  27  35 SE6       30.33R
TOPEKA BILLARD CLEAR     51  29  42 E5        30.35S
TOPEKA FORBES  CLEAR     50  30  46 CALM      30.35R
$$




USA.gov is the U.S. government's official web portal to all federal, state and local government web resources and services.